Regional Weather Roundup
Issued by NWS

Home | Current Version | Previous Version | Graphics & Text | Print | Product List | Glossary On
Versions: 1 2 3 4 5 6 7 8 9 10 11 12 13 14 15 16 17 18 19 20 21 22 23 24 25 26 27 28 29 30 31 32 33 34 35 36 37 38 39 40 41 42 43 44 45 46 47 48 49 50
000
ASUS43 KFSD 282210
RWRSD

WEATHER ROUNDUP FOR SOUTH DAKOTA
NATIONAL WEATHER SERVICE SIOUX FALLS SD
400 PM CST WED JAN 28 2015

NOTE: "FAIR" INDICATES FEW OR NO CLOUDS BELOW 12,000 FEET WITH NO
SIGNIFICANT WEATHER AND/OR OBSTRUCTIONS TO VISIBILITY.


SDZ001>005-009-010-012>017-282300-
NORTHWEST AND NORTH CENTRAL SOUTH DAKOTA

CITY           SKY/WX    TMP DP  RH WIND       PRES   REMARKS
BUFFALO          N/A     34  30  85 NW35G45   29.97R WCI  19
FAITH            N/A     46  32  58 N35G43    29.92R
MOBRIDGE       PTSUNNY   42  34  73 N26G37    29.85R
$$

SDZ012>016-024>037-041>051-057-063-072>074-282300-
SOUTHWEST AND SOUTH CENTRAL SOUTH DAKOTA

CITY           SKY/WX    TMP DP  RH WIND       PRES   REMARKS
RAPID CTY ARPT CLOUDY    53  26  35 NW28G36   29.95R
PIERRE         PTSUNNY   53  32  44 NW22G28   29.80R
CUSTER         CLOUDY    44  20  38 NW14G29   30.00R
ELLSWORTH AFB  CLOUDY    53  27  37 NW26G39   29.95R
PHILIP         CLOUDY    56  27  32 NW29G44   29.88R
PINE RIDGE     CLOUDY    49  35  58 W8        29.99R
SPEARFISH      FAIR      48  28  46 NW26G39   30.04R
WINNER         FAIR      61  30  31 NW29G37   29.79R
$$

SDZ004>011-016>023-039-040-282300-
NORTHEAST SOUTH DAKOTA

CITY           SKY/WX    TMP DP  RH WIND       PRES   REMARKS
ABERDEEN       CLOUDY    42  36  79 N10       29.77R
WATERTOWN      CLOUDY    39  33  79 N7        29.71R
SISSETON         N/A     36  34  92 CALM      29.75R
$$

SDZ017-020-022-023-036>040-048>070-282300-
SOUTHEAST SOUTH DAKOTA

CITY           SKY/WX    TMP DP  RH WIND       PRES   REMARKS
SIOUX FALLS    PTSUNNY   45  35  68 W5        29.68R
HURON          SUNNY     45  37  73 NW14      29.73R
CHAMBERLAIN    SUNNY     54  35  47 NW15G24   29.77R
MITCHELL       SUNNY     47  38  71 NW16G23   29.72R
YANKTON        MOSUNNY   52  37  58 NW16      29.69R
$$

ABBREVIATIONS USED IN REMARKS
   TC - TEMPERATURE IN CELSIUS
  WCI - WIND CHILL INDEX
   HX - HEAT INDEX
  VSB - VISIBILITY




USA.gov is the U.S. government's official web portal to all federal, state and local government web resources and services.